Date,TemperatureHighF,TemperatureAvgF,TemperatureLowF,DewpointHighF,DewpointAvgF,DewpointLowF,HumidityHigh,HumidityAvg,HumidityLow,PressureMaxIn,PressureMinIn,WindSpeedMaxMPH,WindSpeedAvgMPH,GustSpeedMaxMPH,PrecipitationSumIn
2013-11-2,99.1,79.9,46.8,28.6,18.5,4.3,17,10,6,29.85,29.59,13,3,13,0.00
2013-11-3,70.2,65.6,61.7,31.2,24.1,12.7,31,22,12,29.68,29.59,18,6,18,0.00
2013-11-4,89.1,81.6,63.9,29.9,18.2,12.1,23,10,8,29.82,29.47,16,5,16,0.00
2013-11-5,83.5,65.1,51.4,30.5,21.9,11.8,39,21,9,29.94,29.62,11,2,12,0.00
2013-11-6,82.4,62.2,47.5,19.2,12.9,4.1,30,15,9,30.06,29.88,13,4,13,10.53
2013-11-7,93.6,64.0,38.5,27.0,10.4,-3.8,17,13,6,29.97,29.76,13,3,13,0.00
2013-11-8,92.7,68.1,49.8,27.1,13.8,5.4,16,13,7,29.85,29.71,8,2,8,10.53
2013-11-9,93.0,66.5,52.3,27.1,12.5,7.1,16,13,7,29.91,29.79,9,3,10,0.00
2013-11-10,91.4,61.2,52.2,26.3,10.8,7.1,16,14,7,29.91,29.76,8,3,9,10.53
2013-11-11,93.9,70.6,50.9,27.1,14.5,6.3,16,12,7,29.88,29.74,8,2,8,0.00
2013-11-12,100.0,77.4,57.0,28.5,17.8,8.4,15,11,7,29.91,29.79,18,3,18,0.00
2013-11-13,91.9,67.7,60.4,25.9,13.5,11.0,16,12,7,29.91,29.74,17,4,18,0.00
2013-11-14,91.8,69.2,57.0,27.1,15.8,8.4,19,13,7,29.82,29.59,7,2,7,10.53
2013-11-15,87.1,69.9,57.4,35.3,19.0,11.5,34,15,8,29.62,29.38,22,5,24,10.53
2013-11-16,75.6,62.3,56.1,37.5,31.2,10.6,46,32,10,29.71,29.47,115,3,115,0.00
2013-11-17,83.1,62.5,48.7,34.3,26.5,14.4,49,29,10,29.85,29.71,10,2,10,0.00
2013-11-18,87.3,65.7,49.1,27.4,20.8,12.3,37,20,8,29.88,29.74,8,1,9,0.00
2013-11-19,84.2,63.2,50.7,27.1,19.9,13.1,36,21,8,29.79,29.62,11,2,11,10.53
2013-11-20,84.7,64.1,52.7,24.9,18.8,11.1,29,19,8,29.71,29.59,10,2,10,0.00
2013-11-21,85.3,60.1,52.2,42.4,21.7,14.2,50,24,8,29.74,29.62,11,2,11,0.00
2013-11-22,61.2,55.0,50.7,50.2,40.5,31.0,73,58,40,29.79,29.56,18,3,18,0.87
2013-11-23,65.5,52.6,48.4,42.0,34.8,14.9,73,53,15,29.85,29.74,16,4,16,0.33
2013-11-24,66.6,56.3,47.5,40.2,23.4,9.0,67,33,13,29.94,29.82,9,3,10,0.05
2013-11-25,68.4,53.1,37.9,26.0,17.9,8.4,49,28,12,30.03,29.88,8,2,8,0.05
2013-11-26,74.7,48.4,39.6,33.0,22.6,6.5,62,41,11,30.06,29.88,13,2,13,11.78
2013-11-27,73.9,56.7,45.3,17.0,12.5,7.1,28,18,11,29.94,29.74,10,3,10,0.00
2013-11-28,78.1,52.5,41.4,17.2,10.5,4.5,28,19,10,29.85,29.76,9,2,9,11.78
2013-11-29,79.5,53.6,41.9,25.1,18.0,9.8,41,27,10,30.00,29.82,8,2,8,0.00
2013-11-30,67.8,54.5,45.1,28.3,21.7,11.2,49,30,12,29.97,29.82,6,1,6,0.00